Regional Weather Roundup
Issued by NWS

Home | Current Version | Previous Version | Graphics & Text | Print | Product List | Glossary On
Versions: 1 2 3 4 5 6 7 8 9 10 11 12 13 14 15 16 17 18 19 20 21 22 23 24 25 26 27 28 29 30 31 32 33 34 35 36 37 38 39 40 41 42 43 44 45 46 47 48 49 50
000
ASUS43 KBIS 261010
RWRND

NORTH DAKOTA REGIONAL WEATHER ROUNDUP
NATIONAL WEATHER SERVICE BISMARCK ND
500 AM CDT TUE JUL 26 2016

NOTE: "FAIR" INDICATES FEW OR NO CLOUDS BELOW 12,000 FEET WITH NO
SIGNIFICANT WEATHER AND/OR OBSTRUCTIONS TO VISIBILITY.


NDZ001>003-009>011-017-261100-
NORTHWEST NORTH DAKOTA

CITY           SKY/WX    TMP DP  RH WIND       PRES   REMARKS
WILLISTON      CLEAR     64  59  83 N9        30.02S
MINOT          CLEAR     64  60  87 CALM      29.99F
MINOT AFB      CLEAR     64  61  91 N5        30.00R
$$

NDZ018>021-031>035-040>046-261100-
SOUTHWEST NORTH DAKOTA

CITY           SKY/WX    TMP DP  RH WIND       PRES   REMARKS
BISMARCK       CLEAR     70  68  93 NE7       29.95S
DICKINSON      CLEAR     64  63  96 NE6       30.00S
GARRISON         N/A     63  62  97 N5        30.00R
HETTINGER ARPT CLEAR     68  64  87 NE15      30.00F
$$

NDZ004>008-012>016-024-026-027-054-261100-
NORTHEAST NORTH DAKOTA

CITY           SKY/WX    TMP DP  RH WIND       PRES   REMARKS
GRAND FORKS    CLEAR     65  63  93 N6        29.92S
GRND FRKS AFB  CLEAR     65  65  99 N5        29.94R
DEVILS LAKE    CLOUDY    65  63  93 CALM      29.99R
$$

NDZ022-023-025-028>030-036>039-047>053-261100-
SOUTHEAST NORTH DAKOTA

CITY           SKY/WX    TMP DP  RH WIND       PRES   REMARKS
FARGO          CLOUDY    72  61  68 SW10      29.91S
JAMESTOWN      CLOUDY    69  67  93 W6        29.94S
$$




USA.gov is the U.S. government's official web portal to all federal, state and local government web resources and services.